Dallas Love, TX

8:06 AM CDT on May 27, 2017 (GMT -0500)
Dallas Love

Weather History for KDAL - March, 2014

Change the Weather History Date:

Monday, March 3, 2014

  Actual Average Record
Temperature  
Mean Temperature 26 °F -  
Max Temperature 34 °F 61 °F 75 °F (2004)
Min Temperature 17 °F 42 °F 17 °F (2002)
Degree Days  
Heating Degree Days 40    
Moisture  
Dew Point 13 °F    
Average Humidity 62    
Maximum Humidity 74    
Minimum Humidity 48    
Precipitation  
Precipitation 0.00 in - - ()
Sea Level Pressure  
Sea Level Pressure 30.40 in    
Wind  
Wind Speed 14 mph (North)    
Max Wind Speed 18 mph    
Max Gust Speed 29 mph    
Visibility 10 miles    
Events Snow    
Averages and records for this station are not official NWS values.
T = Trace of Precipitation, MM = Missing Value Source: NWS Daily Summary

Daily Weather History Graph

Daily Weather History Graph

Search for Another Location

Airport or City:

Trip Planner

Search our weather history database for the weather conditions in past years. The results will help you decide how hot, cold, wet, or windy it might be!

Date:

Astronomy

Mar. 03, 2014 Rise Set
Actual Time 6:52 AM CST 6:26 PM CST
Civil Twilight 6:28 AM CST 6:50 PM CST
Nautical Twilight 5:59 AM CST 7:19 PM CST
Astronomical Twilight 5:30 AM CST 7:48 PM CST
Moon 8:12 AM CST (3/3) 9:18 PM CST (3/3)
Length of Visible Light 12h 22m
Length of Day
11h 33m
Waxing Crescent, 8% of the Moon is Illuminated
Mar 3
Waxing Crescent
Mar 8
First Quarter
Mar 16
Full
Mar 23
Last Quarter
Mar 30
New

Hourly Weather History & Observations

Time (CST) Temp. Windchill Dew Point Humidity Pressure Visibility Wind Dir Wind Speed Gust Speed Precip Events Conditions
12:53 AM 19.0 °F 4.0 °F 12.0 °F 74% 30.39 in 10.0 mi NNW 17.3 mph 27.6 mph N/A   Overcast
1:53 AM 19.0 °F 5.0 °F 12.0 °F 74% 30.40 in 10.0 mi NNW 15.0 mph 28.8 mph N/A   Overcast
2:53 AM 19.0 °F 4.0 °F 10.9 °F 71% 30.39 in 10.0 mi NW 17.3 mph - 0.00 in Snow Light Snow
3:53 AM 18.0 °F 3.1 °F 10.0 °F 71% 30.40 in 10.0 mi North 16.1 mph - 0.00 in   Overcast
4:53 AM 18.0 °F 2.2 °F 10.0 °F 71% 30.42 in 10.0 mi NNW 18.4 mph 23.0 mph 0.00 in   Overcast
5:53 AM 18.0 °F 2.2 °F 9.0 °F 68% 30.43 in 10.0 mi North 18.4 mph 24.2 mph N/A   Overcast
6:53 AM 17.1 °F 1.5 °F 8.1 °F 68% 30.46 in 10.0 mi North 17.3 mph - N/A   Mostly Cloudy
7:53 AM 17.1 °F 2.5 °F 8.1 °F 68% 30.46 in 9.0 mi North 15.0 mph 21.9 mph 0.00 in Snow Light Snow
7:57 AM 17.6 °F 3.7 °F 8.6 °F 68% 30.44 in 9.0 mi NNW 13.8 mph 21.9 mph 0.00 in Snow Light Snow
8:53 AM 19.0 °F 3.6 °F 9.0 °F 65% 30.48 in 10.0 mi North 18.4 mph - 0.00 in   Scattered Clouds
9:53 AM 21.0 °F 7.6 °F 10.9 °F 65% 30.50 in 10.0 mi NNW 15.0 mph 20.7 mph N/A   Scattered Clouds
10:53 AM 23.0 °F 9.2 °F 12.9 °F 65% 30.48 in 10.0 mi North 17.3 mph 26.5 mph N/A   Mostly Cloudy
11:53 AM 25.0 °F 12.6 °F 14.0 °F 63% 30.45 in 10.0 mi North 15.0 mph 23.0 mph N/A   Mostly Cloudy
12:53 PM 28.0 °F 17.5 °F 15.1 °F 58% 30.43 in 10.0 mi North 12.7 mph - N/A   Mostly Cloudy
1:53 PM 30.0 °F 22.4 °F 15.1 °F 54% 30.40 in 10.0 mi North 8.1 mph 18.4 mph N/A   Mostly Cloudy
2:53 PM 32.0 °F 24.2 °F 16.0 °F 52% 30.37 in 10.0 mi NNW 9.2 mph - N/A   Overcast
3:53 PM 34.0 °F 27.2 °F 16.0 °F 48% 30.36 in 10.0 mi NNW 8.1 mph - N/A   Mostly Cloudy
4:53 PM 34.0 °F 27.2 °F 16.0 °F 48% 30.34 in 10.0 mi NNE 8.1 mph 16.1 mph N/A   Mostly Cloudy
5:53 PM 32.0 °F 26.4 °F 16.0 °F 52% 30.35 in 10.0 mi North 5.8 mph - N/A   Mostly Cloudy
6:53 PM 30.9 °F 25.2 °F 16.0 °F 54% 30.33 in 10.0 mi NNE 5.8 mph - N/A   Mostly Cloudy
7:53 PM 30.0 °F 24.1 °F 15.1 °F 54% 30.36 in 10.0 mi NNE 5.8 mph - N/A   Overcast
8:53 PM 28.9 °F 21.1 °F 16.0 °F 58% 30.35 in 10.0 mi ENE 8.1 mph - N/A   Overcast
9:53 PM 28.0 °F 20.8 °F 16.0 °F 61% 30.34 in 10.0 mi ENE 6.9 mph - N/A   Overcast
10:53 PM 28.0 °F - 14.0 °F 56% 30.35 in 10.0 mi Calm Calm - N/A   Mostly Cloudy
11:53 PM 28.0 °F - 14.0 °F 56% 30.35 in 10.0 mi Calm Calm - N/A   Mostly Cloudy